HULIANWAN GAOGUI-01 (H*)

Last updated on Wed Oct 29 2025 00:02:51 GMT+0000 (Coordinated Universal Time)

1 59069U 24040A 25300.62252036 .00000167 00000+0 00000+0 0 9997 2 59069 0.0455 309.5760 0001695 342.8410 1.6046 1.00273235 4990
UTC large
Height (km)
Speed (km/s)
/
Latitude / Longitude
Inclination (degrees)
Orbital Period (minutes)
Azimuth
Elevation
Range (km)
Doppler Factor

Next 0 passes for location: London (51.5072 / 0.1276)

Sorry there are no passes over London.